This demonstration page uses our WeatherBlox Daily Observations layout. Learn more.

Left ArrowRight Arrow

40.92945, -100.16068

Hourly Observations for June 23, 2016

Temp ( °F °C ) Dew Point ( °F °C ) Humidity (%) Winds ( mph kmh ) Pressure ( in mb ) Visibility ( mi km ) Precip ( " mm )
12:15 am 00:15 Clear 63 17.1 58 14.3 84 84 N 5 7 29.97 1015 10 16 N/A
12:35 am 00:35 Clear 62 16.9 57 14 83 83 NNW 3 6 29.97 1015 10 16 N/A
12:55 am 00:55 Clear 60 15.8 56 13.5 86 86 NW 5 7 30.00 1016 10 16 N/A
1:15 am 01:15 Clear 60 15.5 56 13.6 89 89 W 5 7 30.00 1016 10 16 N/A
1:35 am 01:35 Clear 59 15 56 13.1 89 89 W 5 7 30.00 1016 10 16 N/A
1:55 am 01:55 Clear 60 15.3 55 12.7 85 85 W 3 6 30.00 1016 10 16 N/A
2:15 am 02:15 Clear 59 15.2 55 12.9 86 86 W 6 9 30.00 1016 10 16 N/A
2:35 am 02:35 Clear 59 14.8 55 12.9 88 88 N N/A 30.00 1016 10 16 N/A
2:55 am 02:55 Clear 58 14.3 55 12.8 91 91 NW 5 7 30.00 1016 10 16 N/A
3:15 am 03:15 Clear 58 14.3 55 12.6 90 90 WNW 3 6 30.00 1016 10 16 N/A
3:35 am 03:35 Clear 58 14.2 55 12.6 90 90 W 3 6 30.00 1016 10 16 N/A
3:55 am 03:55 Clear 58 14.7 56 13.1 90 90 WNW 5 7 30.00 1016 10 16 N/A
4:15 am 04:15 Clear 59 15 55 13 88 88 WNW 5 7 30.00 1016 10 16 N/A
4:35 am 04:35 Clear 58 14.6 55 13 90 90 N N/A 30.00 1016 10 16 N/A
4:55 am 04:55 Clear 59 15 56 13.1 89 89 N N/A 30.00 1016 10 16 N/A
5:15 am 05:15 Clear 59 15.2 56 13.3 89 89 N 3 6 30.00 1016 10 16 N/A
5:35 am 05:35 Clear 59 15.2 56 13.6 90 90 N N/A 30.00 1016 10 16 N/A
5:55 am 05:55 Clear 60 15.4 56 13.1 86 86 N N/A 30.03 1017 10 16 N/A
6:15 am 06:15 Sunny 60 15.8 55 12.5 81 81 NE 3 6 30.03 1017 10 16 N/A
6:35 am 06:35 Sunny 60 15.6 55 12.5 82 82 E 3 6 30.03 1017 10 16 N/A
6:55 am 06:55 Sunny 61 16.1 55 12.6 80 80 N N/A 30.06 1018 10 16 N/A
7:15 am 07:15 Sunny 62 16.5 56 13.3 82 82 N N/A 30.06 1018 10 16 N/A
7:35 am 07:35 Sunny 63 17 57 13.8 82 82 ENE 5 7 30.06 1018 10 16 N/A
7:55 am 07:55 Sunny 64 17.7 57 13.9 79 79 E 3 6 30.03 1017 10 16 N/A
8:15 am 08:15 Sunny 65 18.2 56 13.5 74 74 E 5 7 30.03 1017 10 16 N/A
8:35 am 08:35 Sunny 67 19.2 56 13.5 70 70 E 8 13 30.03 1017 10 16 N/A
8:55 am 08:55 Sunny 67 19.5 56 13.4 68 68 E 7 11 30.06 1018 10 16 N/A
9:15 am 09:15 Sunny 68 20.1 56 13.5 66 66 E 7 11 30.06 1018 10 16 N/A
9:35 am 09:35 Sunny 69 20.8 56 13.3 62 62 E 10 17 30.06 1018 10 16 N/A
9:55 am 09:55 Sunny 69 20.6 57 14 66 66 ENE 9 15 30.06 1018 10 16 N/A
10:15 am 10:15 Sunny 69 20.7 56 13.5 64 64 ENE 14 22 30.06 1018 10 16 N/A
10:35 am 10:35 Sunny 71 21.7 57 14.1 62 62 E 16 26 30.00 1016 10 16 N/A
10:55 am 10:55 Sunny 72 22.3 58 14.6 62 62 ENE 13 20 30.03 1017 10 16 N/A
11:15 am 11:15 Sunny 73 22.5 58 14.6 61 61 E 13 20 30.03 1017 10 16 N/A
11:35 am 11:35 Sunny 73 23 59 14.8 60 60 ENE 13 20 30.03 1017 10 16 N/A
11:55 am 11:55 Sunny 74 23.3 59 15.1 60 60 E 9 15 30.00 1016 10 16 N/A
12:15 pm 12:15 Sunny 74 23.3 59 14.9 59 59 E 8 13 30.00 1016 10 16 N/A
12:35 pm 12:35 Sunny 75 23.8 59 15.1 58 58 ESE 9 15 30.00 1016 10 16 N/A
12:55 pm 12:55 Sunny 75 23.9 59 14.9 57 57 E 12 19 30.00 1016 10 16 N/A
1:15 pm 13:15 Sunny 76 24.7 60 15.8 58 58 ESE 9 15 29.97 1015 10 16 N/A
1:35 pm 13:35 Sunny 77 25 59 15.2 55 55 E 10 17 29.97 1015 10 16 N/A
1:55 pm 13:55 Sunny 78 25.7 60 15.8 54 54 E 12 19 29.97 1015 10 16 N/A
2:15 pm 14:15 Sunny 79 26 60 15.6 53 53 E 14 22 29.97 1015 10 16 N/A
2:35 pm 14:35 Sunny 80 26.7 58 14.4 47 47 SE 12 19 29.94 1014 10 16 N/A
2:55 pm 14:55 Sunny 80 26.7 60 15.3 50 50 ESE 12 19 29.94 1014 10 16 N/A
3:15 pm 15:15 Sunny 81 27.2 59 15.2 48 48 ESE 14 22 29.94 1014 10 16 N/A
3:35 pm 15:35 Sunny 82 27.7 59 15.2 46 46 ESE 9 15 29.88 1012 10 16 N/A
3:55 pm 15:55 Sunny 82 27.9 60 15.5 47 47 SSE 12 19 29.88 1012 10 16 N/A
4:15 pm 16:15 Sunny 83 28.4 59 14.9 44 44 SE 10 17 29.88 1012 10 16 N/A
4:35 pm 16:35 Sunny 83 28.6 60 15.8 46 46 SE 12 19 29.88 1012 10 16 N/A
4:55 pm 16:55 Sunny 84 29 62 16.5 47 47 SE 13 20 29.88 1012 10 16 N/A
5:15 pm 17:15 Sunny 83 28.2 61 16 48 48 ESE 13 20 29.88 1012 10 16 N/A
5:35 pm 17:35 Sunny 84 29.1 61 15.9 45 45 SE 12 19 29.88 1012 10 16 N/A
5:55 pm 17:55 Sunny 84 29 61 16 45 45 SE 13 20 29.88 1012 10 16 N/A
6:15 pm 18:15 Sunny 85 29.2 62 16.7 47 47 SSE 14 22 29.88 1012 10 16 N/A
6:35 pm 18:35 Sunny 84 29 62 16.7 47 47 SE 12 19 29.88 1012 10 16 N/A
6:55 pm 18:55 Sunny 84 28.8 63 17.1 49 49 SSE 9 15 29.85 1011 10 16 N/A
7:15 pm 19:15 Sunny 83 28.6 62 16.6 48 48 SSE 12 19 29.85 1011 10 16 N/A
7:35 pm 19:35 Sunny 83 28.2 62 16.8 50 50 SSE 10 17 29.85 1011 10 16 N/A
7:55 pm 19:55 Sunny 82 27.6 62 16.8 52 52 SE 9 15 29.85 1011 10 16 N/A
8:15 pm 20:15 Sunny 79 26.3 63 17 57 57 SSE 6 9 29.91 1013 10 16 N/A
8:35 pm 20:35 Sunny 79 25.9 62 16.8 57 57 SE 6 9 29.91 1013 10 16 N/A
8:55 pm 20:55 Sunny 78 25.5 62 16.5 58 58 SE 7 11 29.91 1013 10 16 N/A
9:15 pm 21:15 Clear 77 25 62 16.6 60 60 SE 7 11 29.91 1013 10 16 N/A
9:35 pm 21:35 Clear 77 24.9 62 16.6 60 60 SE 9 15 29.91 1013 10 16 N/A
9:55 pm 21:55 Clear 75 24.1 63 17 65 65 SSE 9 15 29.91 1013 10 16 N/A
10:15 pm 22:15 Clear 75 23.9 62 16.8 65 65 SE 5 7 29.91 1013 10 16 N/A
10:35 pm 22:35 Clear 74 23.2 62 16.7 67 67 SSE 8 13 29.94 1014 10 16 N/A
10:55 pm 22:55 Clear 74 23.5 62 16.6 65 65 SE 7 11 29.94 1014 10 16 N/A
11:15 pm 23:15 Clear 73 22.6 62 16.9 70 70 ESE 7 11 29.94 1014 10 16 N/A
11:35 pm 23:35 Clear 73 22.5 62 16.6 69 69 SE 7 11 29.94 1014 10 16 N/A
11:55 pm 23:55 Clear 72 22.2 62 16.6 71 71 SE 7 11 29.94 1014 10 16 N/A

Powered by AerisWeather